QPF
0.00 0.00 0.00 0.00 0.00 0.00 0.00 0.00 0.00 0.00 0.00 0.00 0.00 0.00 0.00 0.00 0.00 0.00 0.00 0.00 0.00 0.00 0.00 0.00 0.00 0.00 0.00 0.00 0.00 0.00 0.00 0.00 0.01 0.00 0.00 0.00 0.00 0.01 0.03 0.05 0.05 0.09 0.13 0.15
0.00 0.00 0.00 0.00 0.00 0.00 0.00 0.00 0.00 0.00 0.00 0.00 0.00 0.00 0.00 0.00 0.00 0.00 0.00 0.00 0.00 0.00 0.00 0.00 0.00 0.00 0.00 0.00 0.00 0.00 0.00 0.00 0.01 0.00 0.00 0.00 0.01 0.01 0.01 0.02 0.04 0.04 0.07 0.10
0.00 0.00 0.00 0.00 0.00 0.00 0.00 0.00 0.00 0.00 0.00 0.00 0.00 0.00 0.00 0.00 0.00 0.00 0.00 0.00 0.00 0.00 0.00 0.00 0.00 0.00 0.00 0.00 0.00 0.00 0.00 0.01 0.01 0.00 0.00 0.00 0.00 0.01 0.01 0.02 0.02 0.03 0.03 0.04
0.00 0.00 0.00 0.00 0.00 0.00 0.00 0.00 0.00 0.00 0.00 0.00 0.00 0.00 0.00 0.00 0.00 0.00 0.00 0.00 0.00 0.01 0.01 0.01 0.01 0.01 0.00 0.00 0.00 0.00 0.01 0.01 0.01 0.01 0.01 0.01 0.00 0.01 0.01 0.01 0.02 0.01 0.01 0.01
0.00 0.00 0.00 0.00 0.01 0.01 0.01 0.01 0.00 0.00 0.00 0.00 0.00 0.00 0.00 0.00 0.00 0.00 0.00 0.01 0.01 0.01 0.01 0.01 0.01 0.01 0.01 0.01 0.01 0.01 0.02 0.02 0.02 0.02 0.01 0.01 0.01 0.01 0.01 0.01 0.01 0.00 0.00 0.00
0.00 0.00 0.01 0.01 0.02 0.03 0.02 0.02 0.01 0.00 0.00 0.00 0.00 0.00 0.00 0.00 0.00 0.00 0.00 0.01 0.01 0.01 0.02 0.02 0.02 0.02 0.02 0.03 0.04 0.04 0.04 0.03 0.03 0.02 0.02 0.02 0.01 0.01 0.01 0.01 0.00 0.00 0.00 0.00
0.01 0.02 0.02 0.01 0.03 0.02 0.03 0.03 0.01 0.00 0.00 0.00 0.00 0.01 0.00 0.00 0.00 0.00 0.01 0.01 0.01 0.02 0.02 0.02 0.03 0.04 0.05 0.06 0.07 0.08 0.07 0.06 0.05 0.04 0.03 0.03 0.03 0.02 0.01 0.01 0.00 0.00 0.00 0.00
0.02 0.03 0.04 0.01 0.00 0.00 0.01 0.00 0.00 0.00 0.00 0.00 0.00 0.00 0.00 0.00 0.00 0.00 0.01 0.01 0.02 0.03 0.03 0.03 0.05 0.07 0.10 0.11 0.13 0.14 0.13 0.11 0.08 0.06 0.05 0.04 0.04 0.03 0.02 0.01 0.00 0.00 0.00 0.00
0.01 0.01 0.01 0.00 0.00 0.00 0.00 0.00 0.00 0.00 0.00 0.00 0.00 0.00 0.00 0.00 0.00 0.00 0.01 0.01 0.02 0.03 0.03 0.04 0.07 0.12 0.16 0.18 0.20 0.22 0.21 0.17 0.13 0.10 0.08 0.07 0.06 0.04 0.02 0.01 0.00 0.00 0.00 0.00
0.01 0.00 0.00 0.00 0.00 0.00 0.00 0.00 0.00 0.00 0.00 0.00 0.00 0.00 0.00 0.00 0.00 0.00 0.00 0.02 0.03 0.03 0.04 0.05 0.09 0.14 0.20 0.24 0.26 0.25 0.22 0.18 0.15 0.12 0.10 0.09 0.09 0.06 0.03 0.01 0.00 0.00 0.00 0.00
0.00 0.00 0.00 0.00 0.00 0.00 0.00 0.00 0.00 0.00 0.00 0.00 0.00 0.00 0.00 0.00 0.00 0.00 0.01 0.01 0.02 0.03 0.03 0.05 0.09 0.16 0.25 0.32 0.33 0.31 0.26 0.21 0.17 0.14 0.10 0.09 0.11 0.11 0.06 0.02 0.01 0.01 0.01 0.00
0.00 0.00 0.00 0.00 0.00 0.00 0.00 0.00 0.00 0.00 0.00 0.00 0.00 0.00 0.00 0.00 0.00 0.01 0.01 0.01 0.01 0.02 0.03 0.05 0.09 0.17 0.26 0.35 0.40 0.41 0.40 0.32 0.25 0.20 0.15 0.12 0.12 0.11 0.09 0.06 0.02 0.01 0.00 0.00
0.00 0.00 0.00 0.00 0.00 0.00 0.00 0.00 0.00 0.00 0.00 0.00 0.00 0.00 0.00 0.00 0.00 0.00 0.01 0.01 0.02 0.02 0.03 0.04 0.06 0.13 0.23 0.35 0.44 0.44 0.43 0.40 0.34 0.26 0.20 0.15 0.11 0.08 0.06 0.04 0.03 0.01 0.00 0.00
0.00 0.00 0.00 0.00 0.00 0.00 0.00 0.00 0.00 0.00 0.00 0.00 0.00 0.00 0.00 0.00 0.00 0.00 0.01 0.01 0.02 0.02 0.03 0.03 0.04 0.05 0.12 0.24 0.37 0.44 0.44 0.41 0.34 0.27 0.23 0.17 0.12 0.08 0.05 0.04 0.02 0.01 0.00 0.00
0.00 0.00 0.00 0.00 0.00 0.00 0.00 0.00 0.00 0.00 0.00 0.00 0.00 0.00 0.00 0.00 0.00 0.01 0.01 0.01 0.01 0.02 0.02 0.03 0.03 0.04 0.07 0.15 0.27 0.38 0.42 0.40 0.34 0.26 0.23 0.19 0.13 0.09 0.06 0.05 0.03 0.01 0.00 0.00
0.00 0.00 0.00 0.00 0.00 0.00 0.00 0.00 0.00 0.00 0.00 0.00 0.00 0.00 0.00 0.00 0.00 0.00 0.01 0.01 0.02 0.02 0.02 0.02 0.03 0.03 0.06 0.12 0.21 0.29 0.37 0.39 0.36 0.29 0.22 0.18 0.14 0.09 0.06 0.03 0.02 0.01 0.00 0.00
0.00 0.00 0.00 0.00 0.00 0.00 0.00 0.00 0.00 0.00 0.00 0.00 0.00 0.00 0.01 0.01 0.01 0.01 0.01 0.01 0.02 0.02 0.02 0.02 0.02 0.03 0.05 0.09 0.18 0.28 0.34 0.36 0.33 0.28 0.21 0.16 0.11 0.08 0.05 0.03 0.02 0.01 0.00 0.00
0.00 0.00 0.00 0.00 0.00 0.00 0.00 0.00 0.00 0.00 0.01 0.01 0.01 0.01 0.02 0.02 0.02 0.02 0.02 0.02 0.02 0.01 0.01 0.02 0.02 0.03 0.03 0.07 0.15 0.25 0.35 0.39 0.31 0.23 0.19 0.16 0.12 0.08 0.05 0.03 0.01 0.01 0.00 0.00
0.00 0.00 0.00 0.00 0.00 0.00 0.00 0.00 0.01 0.01 0.01 0.01 0.01 0.02 0.02 0.03 0.03 0.03 0.03 0.03 0.03 0.02 0.02 0.02 0.02 0.02 0.02 0.05 0.12 0.21 0.31 0.38 0.33 0.21 0.15 0.14 0.12 0.10 0.06 0.04 0.02 0.01 0.00 0.00
0.00 0.00 0.00 0.00 0.00 0.00 0.00 0.01 0.01 0.01 0.01 0.01 0.02 0.03 0.03 0.03 0.03 0.03 0.03 0.03 0.03 0.03 0.04 0.03 0.02 0.02 0.02 0.04 0.10 0.18 0.26 0.34 0.33 0.20 0.13 0.11 0.08 0.07 0.05 0.04 0.03 0.02 0.01 0.00
0.00 0.00 0.00 0.00 0.00 0.00 0.01 0.01 0.01 0.01 0.01 0.02 0.03 0.05 0.05 0.05 0.04 0.04 0.05 0.04 0.02 0.03 0.04 0.03 0.02 0.02 0.02 0.04 0.09 0.17 0.25 0.32 0.31 0.22 0.12 0.08 0.05 0.04 0.04 0.04 0.02 0.01 0.01 0.00
0.00 0.00 0.00 0.00 0.00 0.00 0.01 0.01 0.01 0.01 0.02 0.03 0.05 0.07 0.08 0.08 0.06 0.06 0.06 0.05 0.04 0.04 0.03 0.03 0.02 0.01 0.02 0.03 0.08 0.16 0.29 0.32 0.31 0.22 0.13 0.06 0.03 0.02 0.02 0.02 0.01 0.01 0.01 0.00
0.00 0.00 0.00 0.00 0.00 0.00 0.00 0.00 0.00 0.01 0.02 0.05 0.07 0.10 0.14 0.13 0.11 0.12 0.10 0.06 0.06 0.05 0.03 0.02 0.02 0.02 0.02 0.04 0.07 0.14 0.28 0.32 0.31 0.22 0.12 0.05 0.02 0.01 0.01 0.01 0.01 0.00 0.00 0.00
0.00 0.00 0.00 0.00 0.00 0.00 0.00 0.00 0.00 0.01 0.02 0.05 0.07 0.11 0.17 0.19 0.16 0.14 0.11 0.08 0.06 0.03 0.02 0.02 0.01 0.01 0.02 0.03 0.06 0.13 0.23 0.28 0.29 0.21 0.12 0.05 0.02 0.01 0.01 0.00 0.00 0.00 0.00 0.00
0.00 0.00 0.00 0.00 0.00 0.00 0.00 0.00 0.00 0.01 0.03 0.06 0.07 0.10 0.16 0.18 0.19 0.16 0.11 0.08 0.06 0.03 0.02 0.01 0.01 0.02 0.03 0.02 0.05 0.12 0.20 0.24 0.26 0.19 0.10 0.05 0.02 0.01 0.01 0.00 0.00 0.00 0.00 0.00
0.00 0.00 0.00 0.00 0.00 0.00 0.00 0.00 0.01 0.03 0.06 0.10 0.12 0.15 0.19 0.19 0.17 0.15 0.11 0.07 0.06 0.04 0.03 0.02 0.02 0.02 0.02 0.02 0.04 0.10 0.16 0.18 0.19 0.14 0.08 0.04 0.02 0.01 0.01 0.00 0.00 0.00 0.00 0.00
0.00 0.00 0.00 0.00 0.00 0.00 0.00 0.01 0.02 0.04 0.08 0.13 0.19 0.21 0.24 0.26 0.22 0.16 0.11 0.07 0.05 0.04 0.02 0.02 0.02 0.01 0.01 0.02 0.04 0.08 0.11 0.13 0.12 0.09 0.06 0.03 0.02 0.01 0.01 0.00 0.00 0.00 0.00 0.00
MSLP
1014.85 1015.04 1015.26 1015.51 1015.80 1016.08 1016.34 1016.52 1016.59 1016.52 1016.32 1015.99 1015.56 1015.06 1014.55 1014.05 1013.58 1013.16 1012.77 1012.40 1012.01 1011.60 1011.14 1010.64 1010.11 1009.58 1009.09 1008.67 1008.37 1008.21 1008.18 1008.29 1008.50 1008.78 1009.08 1009.35 1009.55 1009.66 1009.65 1009.53 1009.33 1009.05 1008.75 1008.47
1014.88 1015.11 1015.34 1015.58 1015.84 1016.09 1016.32 1016.49 1016.59 1016.61 1016.52 1016.34 1016.08 1015.75 1015.39 1015.01 1014.61 1014.21 1013.79 1013.34 1012.85 1012.31 1011.71 1011.07 1010.40 1009.74 1009.11 1008.56 1008.14 1007.85 1007.72 1007.74 1007.90 1008.16 1008.48 1008.83 1009.14 1009.39 1009.56 1009.62 1009.58 1009.46 1009.29 1009.11
1014.98 1015.26 1015.53 1015.80 1016.06 1016.32 1016.55 1016.74 1016.88 1016.95 1016.94 1016.85 1016.69 1016.46 1016.17 1015.84 1015.47 1015.05 1014.59 1014.08 1013.50 1012.87 1012.17 1011.43 1010.66 1009.89 1009.16 1008.50 1007.96 1007.55 1007.30 1007.21 1007.28 1007.49 1007.81 1008.19 1008.58 1008.96 1009.27 1009.51 1009.64 1009.69 1009.65 1009.58
1015.25 1015.57 1015.89 1016.19 1016.49 1016.76 1017.01 1017.21 1017.35 1017.43 1017.44 1017.37 1017.23 1017.02 1016.74 1016.40 1016.01 1015.56 1015.05 1014.49 1013.86 1013.18 1012.44 1011.66 1010.85 1010.03 1009.23 1008.50 1007.85 1007.33 1006.96 1006.75 1006.71 1006.84 1007.11 1007.48 1007.92 1008.38 1008.81 1009.19 1009.48 1009.68 1009.78 1009.82
1015.73 1016.07 1016.42 1016.75 1017.07 1017.34 1017.58 1017.75 1017.87 1017.91 1017.88 1017.76 1017.57 1017.31 1016.98 1016.58 1016.13 1015.64 1015.09 1014.50 1013.87 1013.19 1012.47 1011.71 1010.92 1010.11 1009.31 1008.54 1007.83 1007.21 1006.72 1006.39 1006.23 1006.25 1006.43 1006.77 1007.20 1007.70 1008.22 1008.70 1009.12 1009.45 1009.68 1009.83
1016.40 1016.74 1017.09 1017.41 1017.71 1017.96 1018.14 1018.26 1018.30 1018.25 1018.12 1017.91 1017.62 1017.25 1016.83 1016.35 1015.83 1015.29 1014.72 1014.13 1013.53 1012.91 1012.25 1011.57 1010.85 1010.11 1009.34 1008.57 1007.83 1007.15 1006.57 1006.12 1005.84 1005.73 1005.82 1006.08 1006.48 1006.98 1007.53 1008.08 1008.59 1009.03 1009.37 1009.62
1017.21 1017.52 1017.82 1018.09 1018.32 1018.49 1018.59 1018.61 1018.53 1018.36 1018.11 1017.76 1017.34 1016.85 1016.31 1015.75 1015.16 1014.58 1014.00 1013.44 1012.90 1012.35 1011.80 1011.23 1010.62 1009.97 1009.27 1008.54 1007.80 1007.09 1006.44 1005.89 1005.50 1005.28 1005.25 1005.42 1005.76 1006.23 1006.79 1007.38 1007.96 1008.48 1008.92 1009.27
1018.08 1018.31 1018.52 1018.69 1018.82 1018.87 1018.84 1018.73 1018.51 1018.20 1017.80 1017.32 1016.77 1016.16 1015.53 1014.88 1014.24 1013.63 1013.06 1012.54 1012.06 1011.60 1011.16 1010.70 1010.21 1009.66 1009.05 1008.38 1007.67 1006.94 1006.25 1005.64 1005.16 1004.84 1004.72 1004.80 1005.07 1005.50 1006.04 1006.65 1007.27 1007.86 1008.38 1008.82
1018.89 1019.02 1019.10 1019.14 1019.12 1019.03 1018.85 1018.58 1018.23 1017.78 1017.26 1016.66 1016.00 1015.30 1014.59 1013.89 1013.22 1012.59 1012.03 1011.54 1011.12 1010.74 1010.38 1010.02 1009.63 1009.18 1008.65 1008.04 1007.36 1006.65 1005.95 1005.29 1004.75 1004.36 1004.16 1004.17 1004.38 1004.76 1005.29 1005.91 1006.56 1007.20 1007.80 1008.33
1019.57 1019.57 1019.51 1019.38 1019.19 1018.93 1018.60 1018.19 1017.71 1017.16 1016.54 1015.86 1015.14 1014.39 1013.64 1012.91 1012.22 1011.59 1011.03 1010.56 1010.17 1009.83 1009.53 1009.23 1008.90 1008.51 1008.04 1007.49 1006.85 1006.16 1005.47 1004.80 1004.23 1003.80 1003.56 1003.51 1003.68 1004.03 1004.54 1005.17 1005.85 1006.54 1007.21 1007.82
1020.05 1019.90 1019.67 1019.37 1019.01 1018.59 1018.12 1017.59 1017.02 1016.39 1015.72 1015.01 1014.27 1013.51 1012.75 1012.02 1011.33 1010.70 1010.14 1009.66 1009.26 1008.93 1008.63 1008.35 1008.04 1007.68 1007.24 1006.72 1006.12 1005.47 1004.79 1004.15 1003.58 1003.14 1002.88 1002.82 1002.96 1003.30 1003.80 1004.43 1005.14 1005.89 1006.62 1007.31
1020.27 1019.97 1019.58 1019.12 1018.60 1018.04 1017.45 1016.84 1016.20 1015.55 1014.87 1014.17 1013.45 1012.72 1011.99 1011.27 1010.58 1009.94 1009.36 1008.86 1008.42 1008.05 1007.72 1007.40 1007.08 1006.71 1006.28 1005.78 1005.21 1004.59 1003.95 1003.34 1002.80 1002.39 1002.13 1002.07 1002.21 1002.55 1003.06 1003.70 1004.44 1005.23 1006.02 1006.78
1020.25 1019.80 1019.25 1018.64 1017.98 1017.31 1016.65 1015.98 1015.33 1014.68 1014.03 1013.37 1012.70 1012.01 1011.32 1010.62 1009.93 1009.28 1008.66 1008.11 1007.61 1007.17 1006.78 1006.41 1006.04 1005.65 1005.21 1004.72 1004.18 1003.60 1003.01 1002.45 1001.96 1001.58 1001.36 1001.31 1001.47 1001.81 1002.32 1002.98 1003.74 1004.56 1005.40 1006.22
1019.98 1019.39 1018.71 1017.97 1017.22 1016.47 1015.76 1015.08 1014.43 1013.82 1013.21 1012.61 1011.99 1011.35 1010.68 1010.00 1009.31 1008.62 1007.96 1007.35 1006.78 1006.27 1005.80 1005.37 1004.95 1004.53 1004.09 1003.61 1003.11 1002.58 1002.04 1001.54 1001.10 1000.77 1000.59 1000.57 1000.74 1001.09 1001.61 1002.27 1003.04 1003.89 1004.76 1005.62
1019.51 1018.79 1018.00 1017.18 1016.36 1015.57 1014.84 1014.17 1013.55 1012.97 1012.41 1011.85 1011.27 1010.66 1010.01 1009.33 1008.61 1007.89 1007.19 1006.51 1005.87 1005.29 1004.77 1004.29 1003.84 1003.41 1002.97 1002.53 1002.06 1001.59 1001.12 1000.68 1000.30 1000.02 999.87 999.88 1000.06 1000.41 1000.93 1001.59 1002.36 1003.21 1004.10 1004.99
1018.87 1018.06 1017.19 1016.31 1015.46 1014.67 1013.94 1013.28 1012.69 1012.14 1011.62 1011.08 1010.52 1009.91 1009.25 1008.54 1007.80 1007.03 1006.27 1005.54 1004.86 1004.24 1003.68 1003.18 1002.73 1002.31 1001.91 1001.51 1001.10 1000.69 1000.29 999.91 999.59 999.35 999.23 999.26 999.44 999.79 1000.30 1000.95 1001.71 1002.56 1003.45 1004.36
1018.12 1017.24 1016.34 1015.44 1014.59 1013.80 1013.10 1012.47 1011.90 1011.36 1010.84 1010.30 1009.71 1009.07 1008.37 1007.61 1006.82 1006.01 1005.21 1004.44 1003.74 1003.10 1002.55 1002.06 1001.64 1001.27 1000.92 1000.58 1000.24 999.90 999.56 999.25 998.97 998.77 998.67 998.71 998.89 999.22 999.72 1000.35 1001.10 1001.94 1002.83 1003.73
1017.31 1016.41 1015.50 1014.62 1013.79 1013.04 1012.36 1011.75 1011.18 1010.64 1010.09 1009.50 1008.86 1008.15 1007.38 1006.56 1005.71 1004.85 1004.01 1003.23 1002.53 1001.91 1001.39 1000.96 1000.60 1000.29 1000.02 999.76 999.49 999.22 998.94 998.67 998.43 998.26 998.17 998.21 998.38 998.70 999.18 999.79 1000.53 1001.35 1002.23 1003.14
1016.51 1015.61 1014.73 1013.89 1013.11 1012.40 1011.75 1011.15 1010.57 1009.99 1009.38 1008.71 1007.99 1007.19 1006.33 1005.43 1004.51 1003.61 1002.75 1001.97 1001.29 1000.72 1000.26 999.90 999.62 999.39 999.20 999.01 998.81 998.59 998.36 998.13 997.93 997.77 997.69 997.72 997.89 998.20 998.66 999.26 999.98 1000.80 1001.68 1002.58
1015.76 1014.91 1014.09 1013.31 1012.58 1011.91 1011.28 1010.67 1010.06 1009.42 1008.72 1007.96 1007.12 1006.22 1005.26 1004.27 1003.29 1002.35 1001.49 1000.72 1000.08 999.57 999.18 998.89 998.69 998.55 998.43 998.30 998.16 997.99 997.80 997.59 997.40 997.25 997.18 997.21 997.38 997.69 998.14 998.74 999.46 1000.27 1001.14 1002.04
1015.13 1014.34 1013.58 1012.87 1012.20 1011.56 1010.94 1010.31 1009.64 1008.92 1008.13 1007.25 1006.30 1005.28 1004.22 1003.16 1002.12 1001.16 1000.29 999.55 998.95 998.50 998.18 997.97 997.84 997.75 997.69 997.62 997.51 997.37 997.20 997.00 996.82 996.68 996.62 996.66 996.83 997.14 997.60 998.20 998.93 999.74 1000.61 1001.50
1014.64 1013.92 1013.23 1012.58 1011.95 1011.33 1010.70 1010.03 1009.30 1008.48 1007.58 1006.59 1005.52 1004.40 1003.25 1002.12 1001.04 1000.06 999.20 998.49 997.93 997.53 997.27 997.12 997.04 997.00 996.98 996.93 996.84 996.71 996.55 996.37 996.19 996.06 996.00 996.05 996.24 996.57 997.04 997.65 998.38 999.19 1000.06 1000.94
1014.30 1013.64 1013.02 1012.41 1011.80 1011.18 1010.52 1009.79 1008.98 1008.07 1007.06 1005.96 1004.79 1003.58 1002.36 1001.18 1000.07 999.08 998.24 997.55 997.04 996.68 996.46 996.35 996.30 996.29 996.28 996.24 996.16 996.04 995.88 995.70 995.53 995.41 995.37 995.44 995.64 995.99 996.48 997.10 997.82 998.63 999.49 1000.34
1014.11 1013.50 1012.92 1012.33 1011.72 1011.07 1010.36 1009.56 1008.66 1007.66 1006.55 1005.36 1004.10 1002.82 1001.55 1000.34 999.23 998.25 997.42 996.77 996.29 995.96 995.77 995.68 995.64 995.64 995.63 995.59 995.51 995.38 995.22 995.05 994.90 994.80 994.78 994.87 995.09 995.45 995.94 996.56 997.28 998.06 998.89 999.71
1014.04 1013.47 1012.90 1012.31 1011.67 1010.98 1010.20 1009.32 1008.33 1007.24 1006.05 1004.79 1003.47 1002.15 1000.86 999.64 998.53 997.57 996.77 996.14 995.68 995.38 995.20 995.11 995.08 995.08 995.06 995.02 994.93 994.81 994.66 994.51 994.37 994.29 994.30 994.40 994.64 995.00 995.49 996.08 996.77 997.52 998.29 999.06
1014.07 1013.51 1012.93 1012.31 1011.63 1010.87 1010.02 1009.06 1008.00 1006.84 1005.59 1004.27 1002.93 1001.59 1000.30 999.09 998.01 997.07 996.30 995.69 995.26 994.96 994.79 994.70 994.66 994.64 994.62 994.58 994.50 994.38 994.25 994.12 994.02 993.96 993.99 994.11 994.35 994.70 995.16 995.71 996.35 997.03 997.73 998.42
1014.15 1013.59 1012.98 1012.32 1011.58 1010.76 1009.84 1008.82 1007.70 1006.49 1005.20 1003.87 1002.52 1001.20 999.93 998.75 997.70 996.80 996.05 995.47 995.04 994.75 994.57 994.47 994.42 994.40 994.37 994.33 994.26 994.17 994.06 993.96 993.89 993.86 993.90 994.03 994.25 994.57 994.99 995.48 996.04 996.64 997.26 997.87
Thickness
5716 5722 5724 5721 5722 5725 5715 5706 5689 5678 5673 5672 5676 5677 5678 5680 5681 5680 5677 5676 5673 5672 5672 5673 5675 5677 5678 5677 5676 5673 5668 5662 5656 5651 5646 5640 5635 5631 5629 5627 5626 5625 5625 5625
5716 5724 5723 5716 5715 5713 5701 5696 5686 5675 5663 5667 5669 5669 5666 5664 5664 5661 5659 5659 5659 5659 5658 5658 5659 5663 5666 5668 5668 5666 5662 5658 5653 5647 5641 5635 5630 5626 5624 5621 5619 5618 5616 5615
5697 5710 5708 5691 5695 5688 5675 5672 5669 5656 5652 5656 5656 5655 5651 5649 5647 5645 5643 5643 5642 5641 5640 5641 5643 5648 5652 5658 5660 5659 5657 5654 5649 5643 5637 5632 5627 5622 5619 5616 5613 5610 5608 5608
5690 5693 5682 5682 5691 5681 5664 5654 5653 5648 5644 5643 5641 5643 5642 5638 5632 5628 5626 5625 5624 5624 5625 5626 5628 5632 5639 5644 5648 5650 5649 5647 5644 5639 5634 5629 5623 5619 5615 5612 5608 5605 5603 5602
5679 5675 5681 5679 5677 5668 5657 5639 5639 5635 5633 5631 5631 5633 5633 5628 5620 5613 5611 5608 5607 5607 5607 5609 5611 5615 5620 5627 5632 5636 5638 5639 5638 5635 5631 5625 5620 5616 5612 5609 5605 5602 5600 5598
5675 5667 5658 5659 5663 5665 5654 5628 5627 5624 5620 5617 5615 5607 5610 5612 5606 5603 5599 5596 5593 5592 5592 5592 5593 5596 5600 5606 5611 5617 5623 5628 5631 5631 5628 5624 5620 5615 5610 5607 5604 5601 5597 5595
5667 5659 5649 5639 5648 5655 5634 5619 5615 5611 5605 5600 5593 5588 5591 5590 5587 5583 5580 5577 5575 5573 5571 5571 5573 5575 5579 5585 5591 5598 5605 5613 5620 5623 5624 5622 5617 5614 5610 5606 5602 5598 5595 5593
5651 5646 5636 5628 5628 5618 5608 5607 5602 5597 5591 5585 5580 5579 5577 5574 5570 5566 5562 5559 5556 5553 5552 5551 5550 5552 5557 5564 5573 5582 5590 5599 5607 5613 5618 5618 5613 5610 5608 5604 5599 5595 5592 5589
5634 5625 5618 5616 5611 5607 5600 5593 5588 5582 5577 5571 5567 5564 5562 5558 5555 5551 5548 5544 5541 5538 5537 5536 5533 5533 5537 5546 5554 5564 5574 5584 5594 5603 5609 5612 5610 5607 5604 5601 5598 5594 5591 5588
5621 5614 5611 5607 5602 5596 5589 5580 5575 5569 5564 5557 5552 5550 5547 5544 5541 5538 5535 5532 5529 5526 5524 5524 5523 5522 5524 5531 5538 5547 5558 5570 5581 5591 5599 5604 5606 5605 5603 5601 5598 5595 5591 5589
5608 5603 5599 5595 5589 5583 5577 5570 5564 5559 5553 5546 5540 5537 5535 5532 5530 5527 5526 5523 5520 5516 5515 5515 5515 5514 5516 5518 5523 5532 5544 5556 5569 5581 5591 5598 5601 5603 5604 5604 5604 5599 5596 5593
5591 5589 5580 5578 5578 5573 5564 5558 5553 5546 5542 5536 5527 5523 5522 5520 5519 5517 5516 5515 5512 5510 5508 5508 5507 5507 5507 5508 5512 5521 5532 5545 5558 5571 5583 5592 5595 5597 5600 5601 5600 5598 5597 5594
5587 5584 5576 5571 5567 5560 5552 5545 5539 5531 5524 5519 5516 5512 5509 5508 5508 5507 5507 5506 5505 5504 5503 5502 5501 5501 5502 5503 5507 5514 5524 5536 5549 5561 5575 5585 5591 5593 5591 5591 5592 5592 5592 5591
5583 5574 5564 5559 5553 5546 5538 5531 5524 5517 5512 5507 5505 5503 5502 5502 5502 5501 5500 5500 5500 5499 5497 5496 5495 5496 5498 5500 5503 5510 5520 5532 5543 5554 5568 5579 5586 5590 5591 5590 5588 5586 5585 5586
5573 5564 5554 5549 5540 5532 5524 5517 5511 5507 5504 5502 5500 5498 5498 5497 5497 5497 5497 5496 5495 5492 5491 5490 5490 5492 5494 5496 5500 5508 5517 5527 5538 5549 5563 5576 5583 5586 5588 5589 5589 5585 5579 5578
5562 5554 5545 5535 5527 5519 5512 5505 5501 5500 5499 5497 5496 5496 5495 5495 5495 5495 5494 5492 5488 5486 5485 5484 5485 5488 5492 5495 5499 5507 5516 5527 5537 5546 5559 5572 5580 5584 5586 5586 5586 5584 5583 5578
5548 5539 5531 5522 5515 5509 5504 5499 5496 5496 5496 5495 5495 5495 5495 5495 5494 5493 5491 5488 5485 5483 5482 5481 5483 5487 5490 5494 5499 5506 5516 5525 5537 5546 5558 5571 5579 5583 5586 5586 5586 5585 5584 5581
5538 5528 5519 5510 5505 5502 5500 5498 5497 5495 5494 5494 5495 5494 5493 5491 5490 5490 5489 5487 5484 5482 5481 5482 5483 5486 5490 5494 5500 5507 5516 5525 5535 5546 5559 5570 5578 5583 5585 5586 5586 5584 5581 5576
5531 5522 5514 5508 5503 5498 5496 5495 5494 5494 5493 5493 5492 5490 5489 5488 5488 5487 5486 5484 5482 5481 5483 5483 5484 5485 5489 5494 5502 5509 5516 5526 5536 5548 5560 5569 5576 5582 5584 5585 5585 5584 5581 5576
5525 5518 5511 5506 5502 5496 5494 5493 5492 5492 5492 5491 5490 5489 5488 5488 5486 5486 5484 5482 5481 5481 5482 5483 5484 5487 5491 5497 5504 5510 5519 5528 5539 5551 5561 5570 5577 5582 5584 5585 5584 5583 5581 5578
5519 5512 5506 5502 5498 5496 5492 5490 5490 5490 5490 5489 5487 5486 5486 5487 5486 5484 5483 5483 5485 5483 5482 5482 5485 5488 5492 5498 5506 5512 5521 5532 5543 5553 5564 5572 5579 5582 5584 5584 5584 5583 5581 5578
5512 5506 5501 5497 5494 5493 5491 5489 5488 5487 5487 5488 5487 5486 5486 5486 5485 5484 5483 5482 5484 5482 5481 5483 5485 5489 5494 5501 5507 5515 5525 5536 5547 5557 5567 5574 5580 5583 5584 5584 5584 5584 5582 5580
5506 5500 5495 5492 5490 5489 5489 5488 5486 5485 5485 5485 5485 5485 5484 5483 5483 5482 5486 5486 5483 5482 5482 5484 5487 5492 5497 5503 5510 5519 5529 5540 5551 5561 5570 5576 5581 5584 5585 5586 5586 5585 5583 5581
5500 5495 5491 5489 5486 5485 5486 5487 5486 5485 5485 5485 5486 5485 5484 5484 5486 5485 5484 5485 5484 5484 5485 5487 5489 5495 5500 5505 5513 5522 5533 5544 5555 5564 5573 5577 5582 5584 5586 5587 5587 5586 5585 5583
5494 5490 5487 5484 5483 5482 5482 5483 5485 5486 5485 5487 5488 5488 5487 5484 5484 5488 5488 5488 5488 5487 5489 5492 5495 5500 5504 5510 5518 5527 5537 5548 5557 5566 5574 5579 5583 5585 5587 5588 5588 5588 5587 5585
5490 5486 5483 5479 5477 5477 5478 5480 5481 5482 5483 5486 5489 5490 5490 5490 5490 5490 5490 5490 5491 5491 5492 5496 5501 5505 5509 5516 5524 5532 5542 5551 5559 5567 5574 5579 5582 5585 5587 5589 5590 5590 5589 5589
5487 5483 5480 5479 5478 5477 5478 5478 5479 5482 5483 5484 5487 5491 5492 5493 5493 5493 5493 5493 5493 5494 5496 5501 5506 5511 5516 5522 5529 5538 5546 5554 5562 5569 5574 5578 5582 5585 5588 5590 5590 5591 5591 5591